Miscellaneous Local Product
Issued by NWS Hastings, NE

Home | Current Version | Previous Version | Text Only | Print | Product List | Glossary Off
Versions: 1 2 3 4 5 6 7 8 9 10 11 12 13 14 15 16 17 18 19 20 21 22 23 24 25 26 27 28 29 30 31 32 33 34 35 36 37 38 39 40 41 42 43 44 45 46 47 48 49 50

000
AXUS43 KGID 301902
MISGRI

GID CWA HOURLY WEATHER ROUNDUP
NATIONAL WEATHER SERVICE HASTINGS NE
200 PM CDT TUE SEP 30 2014

NOTE: "FAIR" INDICATES FEW OR NO CLOUDS BELOW 12,000 FEET WITH NO
SIGNIFICANT WEATHER AND/OR OBSTRUCTIONS TO VISIBILITY.

...SOUTH CENTRAL NEBRASKA...

CITY           SKY/WX    TMP DP  RH WIND       PRES   REMARKS
GRAND ISLAND   MOSUNNY   75  60  59 S16G24    29.76F
HASTINGS       MOSUNNY   73  59  61 SE18G24   29.77F
KEARNEY        SUNNY     77  48  36 S13       29.76F
ORD            SUNNY     78  44  29 SW20G28   29.71F
YORK           CLOUDY    64  63  94 S14       29.80F
AURORA         CLOUDY    69  61  76 S15G21    29.78F
LEXINGTON      SUNNY     76  49  39 S10G16    29.75F
HOLDREGE       SUNNY     75  47  37 S6        29.76F
HEBRON         CLOUDY    65  62  90 S8        29.81F

...NEBRASKA PANHANDLE...

CITY           SKY/WX    TMP DP  RH WIND       PRES   REMARKS
CHADRON        CLOUDY    61  48  62 W31G37    29.65R
ALLIANCE       PTSUNNY   64  43  46 W23G31    29.71F
SCOTTSBLUFF    MOSUNNY   69  42  37 W23G39    29.73S
SIDNEY         SUNNY     71  37  28 W28G40    29.79F

...WESTERN AND NORTH CENTRAL NEBRASKA...

CITY           SKY/WX    TMP DP  RH WIND       PRES   REMARKS
VALENTINE      CLOUDY    69  45  41 SW36G48   29.60S
AINSWORTH      PTSUNNY   69  44  41 SW25G32   29.65F
ONEILL         SUNNY     77  50  38 S18G25    29.69S
BROKEN BOW     MOSUNNY   77  45  32 SW18G26   29.72F
IMPERIAL       SUNNY     73  42  32 S15G21    29.78S
NORTH PLATTE   MOSUNNY   76  41  28 W18G31    29.74F
MCCOOK         SUNNY     76  46  34 S10       29.76F

...EASTERN NEBRASKA...

CITY           SKY/WX    TMP DP  RH WIND       PRES   REMARKS
NORFOLK        PTSUNNY   71  62  73 S24G32    29.76F
SO SIOUX CITY  LGT RAIN  65  62  90 S10       29.81S FOG
TEKAMAH        LGT RAIN  66  64  93 S7        29.84R FOG
COLUMBUS       CLOUDY    64  61  88 S12       29.81F
ALBION         SUNNY     75  57  52 S16G23    29.74F
OMAHA EPPLEY   CLOUDY    73  60  63 SW7       29.83S
OFFUTT AFB     PTSUNNY   74  64  71 W6        29.81F
MILLARD        LGT RAIN  69  63  79 W3        29.84R
LINCOLN        RAIN      64  62  93 S9        29.84F FOG
NEBRASKA CITY  PTSUNNY   78  53  42 S8G17     29.81F
BEATRICE       HVY RAIN  65  63  94 S3        29.84F
FALLS CITY     PTSUNNY   81  59  47 S13G24    29.81F

...NORTHERN KANSAS...

CITY           SKY/WX    TMP DP  RH WIND       PRES   REMARKS
GOODLAND       SUNNY     71  42  35 W6        29.81F
HILL CITY      MOSUNNY   77  57  50 CALM      29.76F
NORTON         CLEAR     79  39  24 SE6       29.76F
PHILLIPSBURG   PTSUNNY   75  57  53 CALM      29.76F
SMITH CENTER   PTSUNNY   73  61  64 SE9G16    29.77F
BELOIT         CLOUDY    66  64  94 SE8       29.77F
HAYS           CLOUDY    75  61  60 S15       29.77F
RUSSELL        PTSUNNY   73  64  73 S14G24    29.76F
CONCORDIA      CLOUDY    65  65 100 SE10      29.78F
SALINA         CLOUDY    72  67  84 CALM      29.77F
TOPEKA         PTSUNNY   86  59  39 S13G25    29.82F



USA.gov is the U.S. government's official web portal to all federal, state and local government web resources and services.